Weather History for Albert Lea, MN

Change the Weather History Date:

Friday, March 1, 2013

  Actual Average Record
Temperature  
Mean Temperature 19 °F -  
Max Temperature 26 °F 28 °F 50 °F (1999)
Min Temperature 12 °F 15 °F -7 °F (2014)
Degree Days  
Heating Degree Days 46    
Moisture  
Dew Point 18 °F    
Average Humidity 81    
Maximum Humidity 100    
Minimum Humidity 69    
Precipitation  
Precipitation 0.00 in - - ()
Sea Level Pressure  
Sea Level Pressure 30.24 in    
Wind  
Wind Speed 8 mph (North)    
Max Wind Speed 14 mph    
Max Gust Speed 18 mph    
Visibility 10 miles    
Events Snow    
Averages and records for this station are not official NWS values.
T = Trace of Precipitation, MM = Missing Value Source: NWS Daily Summary

Daily Weather History Graph

Daily Weather History Graph

Search for Another Location

Airport:

Trip Planner

Search our weather history database for the weather conditions in past years. The results will help you decide how hot, cold, wet, or windy it might be!

Date:

Astronomy

Mar. 01, 2013 Rise Set
Actual Time 6:49 AM CST 6:02 PM CST
Civil Twilight 6:20 AM CST 6:31 PM CST
Nautical Twilight 5:47 AM CST 7:04 PM CST
Astronomical Twilight 5:14 AM CST 7:37 PM CST
Moon 10:47 PM CST (3/1) 8:27 AM CST (3/1)
Length of Visible Light 12h 10m
Length of Day
11h 12m
Waning Gibbous, 83% of the Moon is Illuminated
Mar 1
Waning Gibbous
Mar 4
Last Quarter
Mar 11
New
Mar 19
First Quarter
Mar 27
Full

Hourly Weather History & Observations

Time (CST) Temp. Windchill Dew Point Humidity Pressure Visibility Wind Dir Wind Speed Gust Speed Precip Events Conditions
12:14 AM 26.6 °F 20.0 °F 21.2 °F 80% 30.15 in 10.0 mi NNE 5.8 mph - N/A   Overcast
12:34 AM 26.6 °F 20.0 °F 19.4 °F 74% 30.15 in 10.0 mi North 5.8 mph - N/A   Overcast
12:55 AM 26.6 °F 21.2 °F 19.4 °F 74% 30.16 in 10.0 mi North 4.6 mph - N/A   Overcast
1:14 AM 24.8 °F 17.9 °F 19.4 °F 80% 30.16 in 10.0 mi North 5.8 mph - N/A   Overcast
1:34 AM 24.8 °F 17.9 °F 19.4 °F 80% 30.16 in 10.0 mi North 5.8 mph - N/A   Overcast
1:55 AM 24.8 °F 19.1 °F 21.2 °F 86% 30.16 in 10.0 mi NNE 4.6 mph - N/A   Overcast
2:14 AM 24.8 °F 16.1 °F 21.2 °F 86% 30.16 in 10.0 mi NNE 8.1 mph - N/A   Overcast
2:34 AM 24.8 °F 16.9 °F 21.2 °F 86% 30.16 in 10.0 mi NE 6.9 mph - N/A   Overcast
2:55 AM 24.8 °F 16.9 °F 21.2 °F 86% 30.16 in 10.0 mi NNE 6.9 mph - N/A   Overcast
3:34 AM 24.8 °F 16.9 °F 19.4 °F 80% 30.16 in 10.0 mi NNE 6.9 mph - N/A   Overcast
4:14 AM 24.8 °F 16.1 °F 19.4 °F 80% 30.17 in 10.0 mi NNE 8.1 mph - N/A   Overcast
4:34 AM 24.8 °F 14.6 °F 19.4 °F 80% 30.17 in 10.0 mi NE 10.4 mph - N/A   Overcast
4:55 AM 24.8 °F 15.3 °F 19.4 °F 80% 30.18 in 10.0 mi NNE 9.2 mph - N/A   Overcast
5:14 AM 23.0 °F 13.1 °F 19.4 °F 86% 30.19 in 10.0 mi NNE 9.2 mph - N/A Snow Light Snow
5:34 AM 23.0 °F 13.9 °F 19.4 °F 86% 30.20 in 10.0 mi NNE 8.1 mph - N/A Snow Light Snow
6:14 AM 21.2 °F 11.7 °F 19.4 °F 93% 30.20 in 10.0 mi NNE 8.1 mph - N/A Snow Light Snow
6:34 AM 21.2 °F 12.6 °F 19.4 °F 93% 30.21 in 10.0 mi North 6.9 mph - N/A Snow Light Snow
6:55 AM 21.2 °F 11.7 °F 19.4 °F 93% 30.21 in 10.0 mi NNE 8.1 mph - N/A Snow Light Snow
7:14 AM 21.2 °F 10.1 °F 19.4 °F 93% 30.22 in 7.0 mi NNE 10.4 mph - N/A Snow Light Snow
7:34 AM 21.2 °F 11.7 °F 19.4 °F 93% 30.23 in 10.0 mi NNE 8.1 mph - N/A Snow Light Snow
8:14 AM 21.2 °F 10.1 °F 19.4 °F 93% 30.24 in 10.0 mi NNE 10.4 mph - N/A Snow Light Snow
8:34 AM 23.0 °F 11.1 °F 17.6 °F 80% 30.24 in 10.0 mi NNE 12.7 mph 16.1 mph N/A Snow Light Snow
9:14 AM 23.0 °F 11.1 °F 17.6 °F 80% 30.25 in 10.0 mi NNE 12.7 mph - N/A Snow Light Snow
9:35 AM 23.0 °F 10.6 °F 15.8 °F 74% 30.26 in 10.0 mi NE 13.8 mph - N/A   Overcast
9:54 AM 23.0 °F 11.1 °F 17.6 °F 80% 30.26 in 10.0 mi NE 12.7 mph - N/A   Overcast
10:14 AM 24.8 °F 14.0 °F 15.8 °F 69% 30.26 in 10.0 mi NE 11.5 mph - N/A   Scattered Clouds
10:34 AM 24.8 °F 14.0 °F 17.6 °F 74% 30.26 in 10.0 mi NE 11.5 mph - N/A   Clear
11:14 AM 24.8 °F 13.4 °F 15.8 °F 69% 30.26 in 10.0 mi NE 12.7 mph - N/A   Scattered Clouds
11:34 AM 24.8 °F 13.4 °F 15.8 °F 69% 30.26 in 10.0 mi NE 12.7 mph - N/A   Clear
11:54 AM 24.8 °F 14.0 °F 17.6 °F 74% 30.27 in 10.0 mi NNE 11.5 mph 18.4 mph N/A   Scattered Clouds
12:14 PM 24.8 °F 13.4 °F 17.6 °F 74% 30.27 in 10.0 mi NNE 12.7 mph - N/A   Overcast
12:35 PM 24.8 °F 13.4 °F 17.6 °F 74% 30.27 in 10.0 mi NE 12.7 mph - N/A   Overcast
1:34 PM 26.6 °F 18.2 °F 17.6 °F 69% 30.25 in 10.0 mi North 8.1 mph - N/A   Overcast
1:54 PM 26.6 °F 16.8 °F 19.4 °F 74% 30.25 in 10.0 mi North 10.4 mph - N/A   Overcast
2:14 PM 26.6 °F 15.7 °F 19.4 °F 74% 30.25 in 10.0 mi North 12.7 mph - N/A   Overcast
2:34 PM 26.6 °F 16.2 °F 17.6 °F 69% 30.25 in 10.0 mi North 11.5 mph - N/A   Overcast
2:54 PM 26.6 °F 16.8 °F 19.4 °F 74% 30.25 in 10.0 mi North 10.4 mph 17.3 mph N/A   Overcast
3:14 PM 26.6 °F 16.2 °F 19.4 °F 74% 30.25 in 10.0 mi North 11.5 mph - N/A   Overcast
3:34 PM 26.6 °F 17.5 °F 19.4 °F 74% 30.25 in 10.0 mi North 9.2 mph - N/A   Overcast
3:54 PM 26.6 °F 16.8 °F 19.4 °F 74% 30.25 in 10.0 mi North 10.4 mph - N/A   Mostly Cloudy
4:14 PM 26.6 °F 16.8 °F 19.4 °F 74% 30.25 in 10.0 mi North 10.4 mph - N/A   Mostly Cloudy
4:34 PM 26.6 °F 17.5 °F 19.4 °F 74% 30.25 in 10.0 mi North 9.2 mph - N/A   Mostly Cloudy
4:55 PM 26.6 °F 18.2 °F 19.4 °F 74% 30.26 in 10.0 mi North 8.1 mph - N/A   Overcast
5:14 PM 26.6 °F 17.5 °F 19.4 °F 74% 30.26 in 10.0 mi North 9.2 mph - N/A   Overcast
5:34 PM 26.6 °F 18.2 °F 19.4 °F 74% 30.27 in 10.0 mi North 8.1 mph - N/A   Overcast
5:54 PM 26.6 °F 18.2 °F 19.4 °F 74% 30.27 in 10.0 mi NNW 8.1 mph - N/A   Overcast
6:14 PM 24.8 °F 16.9 °F 19.4 °F 80% 30.28 in 10.0 mi NNW 6.9 mph - N/A   Overcast
6:34 PM 24.8 °F 17.9 °F 17.6 °F 74% 30.28 in 10.0 mi NNW 5.8 mph - N/A   Scattered Clouds
6:54 PM 21.2 °F 13.6 °F 17.6 °F 86% 30.29 in 10.0 mi NNW 5.8 mph - N/A   Clear
7:14 PM 21.2 °F 13.6 °F 17.6 °F 86% 30.29 in 10.0 mi NW 5.8 mph - N/A   Clear
7:35 PM 21.2 °F 13.6 °F 17.6 °F 86% 30.29 in 10.0 mi NW 5.8 mph - N/A   Clear
8:15 PM 21.2 °F 13.6 °F 15.8 °F 80% 30.29 in 10.0 mi NW 5.8 mph - N/A   Clear
8:34 PM 21.2 °F 14.9 °F 15.8 °F 80% 30.29 in 10.0 mi NNW 4.6 mph - N/A   Clear
8:54 PM 19.4 °F - 15.8 °F 86% 30.29 in 10.0 mi Calm Calm - N/A   Clear
9:15 PM 17.6 °F - 15.8 °F 93% 30.29 in 10.0 mi Calm Calm - N/A   Clear
9:34 PM 17.6 °F - 14.0 °F 86% 30.29 in 10.0 mi Calm Calm - N/A   Clear
9:54 PM 15.8 °F - 14.0 °F 93% 30.29 in 10.0 mi Calm Calm - N/A   Clear
10:15 PM 15.8 °F 8.6 °F 12.2 °F 86% 30.30 in 10.0 mi WNW 4.6 mph - N/A   Clear
10:34 PM 15.8 °F 10.2 °F 12.2 °F 86% 30.30 in 10.0 mi WNW 3.5 mph - N/A   Clear
10:54 PM 14.0 °F - 12.2 °F 93% 30.29 in 10.0 mi Calm Calm - N/A   Clear
11:15 PM 14.0 °F - 12.2 °F 93% 30.29 in 10.0 mi Calm Calm - N/A   Clear
11:34 PM 12.2 °F 6.1 °F 12.2 °F 100% 30.28 in 10.0 mi WNW 3.5 mph - N/A   Clear
11:54 PM 12.2 °F 6.1 °F 12.2 °F 100% 30.28 in 10.0 mi WNW 3.5 mph - N/A   Clear